When you browse on this site, cookies collect data to enhance your experience and personalize the content and advertising you see.
Visit our Privacy Policy to learn more. By continuing to use the site, you agree to this use of cookies and data.
  • en Suisse
  • Liste des pays
  • À 7 jours
  • Température de l'eau
  • Carte météo
  • Widgets météo
  • user-avatar
    Se connecter

    Météo par heure à Reims

    Ce jour, 31 Mai, Dimanche

    Heure Température Précipitation Vent Pression Humidité
    00:00 +11°C° 0 mm 3 m/s 756 mmHg 70%
    01:00 +10°C° 0 mm 3 m/s 756 mmHg 70%
    02:00 +10°C° 0 mm 2 m/s 757 mmHg 71%
    03:00 +9°C° 0 mm 2 m/s 757 mmHg 71%
    04:00 +10°C° 0 mm 3 m/s 757 mmHg 72%
    05:00 +11°C° 0 mm 3 m/s 757 mmHg 72%
    06:00 +12°C° 0 mm 3 m/s 757 mmHg 73%
    07:00 +14°C° 0 mm 3 m/s 757 mmHg 69%
    08:00 +15°C° 0 mm 4 m/s 757 mmHg 65%
    09:00 +18°C° 0 mm 4 m/s 757 mmHg 61%
    10:00 +19°C° 0 mm 4 m/s 757 mmHg 59%
    11:00 +19°C° 0 mm 5 m/s 757 mmHg 57%
    12:00 +20°C° 0 mm 5 m/s 757 mmHg 55%
    13:00 +20°C° 0 mm 4 m/s 757 mmHg 56%
    14:00 +20°C° 0 mm 4 m/s 756 mmHg 57%
    15:00 +20°C° 0 mm 4 m/s 756 mmHg 59%
    16:00 +20°C° 0 mm 4 m/s 756 mmHg 63%
    17:00 +19°C° 0 mm 3 m/s 756 mmHg 68%
    18:00 +19°C° 0 mm 3 m/s 756 mmHg 72%
    19:00 +17°C° 0 mm 3 m/s 756 mmHg 73%
    20:00 +14°C° 0 mm 3 m/s 756 mmHg 73%
    21:00 +13°C° 0 mm 3 m/s 756 mmHg 74%
    22:00 +12°C° 0 mm 3 m/s 757 mmHg 77%
    23:00 +11°C° 0 mm 3 m/s 757 mmHg 79%

    Demain, 1 Juin, Lundi

    Heure Température Précipitation Vent Pression Humidité
    00:00 +10°C° 0 mm 3 m/s 757 mmHg 82%
    01:00 +10°C° 0 mm 3 m/s 757 mmHg 83%
    02:00 +10°C° 0 mm 3 m/s 757 mmHg 83%
    03:00 +9°C° 0 mm 3 m/s 756 mmHg 84%
    04:00 +10°C° 0 mm 3 m/s 756 mmHg 82%
    05:00 +11°C° 0 mm 4 m/s 756 mmHg 79%
    06:00 +12°C° 0 mm 4 m/s 756 mmHg 77%
    07:00 +14°C° 0 mm 5 m/s 757 mmHg 74%
    08:00 +16°C° 0 mm 5 m/s 757 mmHg 71%
    09:00 +19°C° 0 mm 5 m/s 757 mmHg 68%
    10:00 +20°C° 0 mm 5 m/s 756 mmHg 66%
    11:00 +21°C° 0 mm 6 m/s 756 mmHg 64%
    12:00 +23°C° 0 mm 6 m/s 756 mmHg 62%
    13:00 +23°C° 0 mm 6 m/s 756 mmHg 61%
    14:00 +23°C° 0 mm 6 m/s 756 mmHg 61%
    15:00 +25°C° 0 mm 5 m/s 756 mmHg 61%
    16:00 +23°C° 0 mm 5 m/s 755 mmHg 65%
    17:00 +22°C° 0 mm 4 m/s 755 mmHg 70%
    18:00 +21°C° 0 mm 3 m/s 755 mmHg 74%
    19:00 +20°C° 0 mm 3 m/s 755 mmHg 75%
    20:00 +18°C° 0 mm 3 m/s 756 mmHg 77%
    21:00 +16°C° 0 mm 3 m/s 756 mmHg 78%
    22:00 +14°C° 0 mm 3 m/s 756 mmHg 80%
    23:00 +15°C° 0 mm 2 m/s 755 mmHg 81%

    Après-demain, 2 Juin, Mardi

    Heure Température Précipitation Vent Pression Humidité
    00:00 +14°C° 0 mm 2 m/s 755 mmHg 83%
    01:00 +13°C° 0 mm 2 m/s 755 mmHg 85%
    02:00 +13°C° 0 mm 2 m/s 755 mmHg 88%
    03:00 +12°C° 0 mm 2 m/s 755 mmHg 90%
    04:00 +13°C° 0 mm 3 m/s 755 mmHg 88%
    05:00 +14°C° 0 mm 3 m/s 755 mmHg 86%
    06:00 +16°C° 0 mm 3 m/s 755 mmHg 83%
    07:00 +18°C° 0 mm 3 m/s 755 mmHg 78%
    08:00 +20°C° 0 mm 3 m/s 755 mmHg 73%
    09:00 +22°C° 0 mm 3 m/s 755 mmHg 68%
    10:00 +24°C° 0 mm 3 m/s 755 mmHg 65%
    11:00 +25°C° 0 mm 3 m/s 754 mmHg 62%
    12:00 +26°C° 0 mm 3 m/s 754 mmHg 58%
    13:00 +26°C° 0 mm 3 m/s 753 mmHg 58%
    14:00 +26°C° 0 mm 3 m/s 753 mmHg 57%
    15:00 +26°C° 0 mm 2 m/s 753 mmHg 57%
    16:00 +25°C° 0 mm 2 m/s 752 mmHg 62%
    17:00 +25°C° 0 mm 1 m/s 752 mmHg 66%
    18:00 +24°C° 0 mm 1 m/s 751 mmHg 71%
    19:00 +22°C° 0 mm 1 m/s 751 mmHg 74%
    20:00 +20°C° 0 mm 1 m/s 751 mmHg 78%
    21:00 +16°C° 0 mm 0 m/s 751 mmHg 81%
    22:00 +16°C° 0 mm 0 m/s 751 mmHg 82%
    23:00 +15°C° 0 mm 0 m/s 751 mmHg 84%

    3 Juin, Mercredi

    Heure Température Précipitation Vent Pression Humidité
    00:00 +14°C° 0 mm 0 m/s 750 mmHg 86%
    01:00 +14°C° 0 mm 0 m/s 750 mmHg 86%
    02:00 +14°C° 0 mm 0 m/s 749 mmHg 87%
    03:00 +13°C° 0 mm 0 m/s 749 mmHg 88%
    04:00 +14°C° 0 mm 0 m/s 749 mmHg 87%
    05:00 +16°C° 0 mm 1 m/s 749 mmHg 85%
    06:00 +18°C° 0 mm 1 m/s 748 mmHg 84%
    07:00 +20°C° 0.2 mm 1 m/s 748 mmHg 80%
    08:00 +21°C° 0.2 mm 1 m/s 748 mmHg 77%
    09:00 +22°C° 0.2 mm 1 m/s 748 mmHg 73%
    10:00 +23°C° 0.4 mm 1 m/s 747 mmHg 68%
    11:00 +24°C° 0.4 mm 1 m/s 747 mmHg 64%
    12:00 +25°C° 0.4 mm 1 m/s 747 mmHg 59%
    13:00 +25°C° 0.3 mm 1 m/s 746 mmHg 60%
    14:00 +25°C° 0.3 mm 1 m/s 746 mmHg 61%
    15:00 +25°C° 0.3 mm 1 m/s 745 mmHg 61%
    16:00 +24°C° 0.4 mm 1 m/s 745 mmHg 67%
    17:00 +23°C° 0.4 mm 1 m/s 745 mmHg 74%
    18:00 +23°C° 0.4 mm 2 m/s 744 mmHg 80%
    19:00 +21°C° 0.8 mm 1 m/s 744 mmHg 83%
    20:00 +20°C° 0.8 mm 1 m/s 745 mmHg 87%
    21:00 +18°C° 0.8 mm 1 m/s 745 mmHg 90%
    22:00 +18°C° 0.4 mm 1 m/s 744 mmHg 91%
    23:00 +18°C° 0.4 mm 1 m/s 744 mmHg 93%

    4 Juin, Jeudi

    Heure Température Précipitation Vent Pression Humidité
    00:00 +17°C° 0.4 mm 2 m/s 744 mmHg 94%
    01:00 +16°C° 0.4 mm 2 m/s 744 mmHg 95%
    02:00 +16°C° 0.4 mm 2 m/s 744 mmHg 97%
    03:00 +15°C° 0.4 mm 2 m/s 744 mmHg 98%
    04:00 +16°C° 0.1 mm 2 m/s 744 mmHg 97%
    05:00 +16°C° 0.1 mm 2 m/s 744 mmHg 97%
    06:00 +16°C° 0.1 mm 2 m/s 744 mmHg 97%
    07:00 +17°C° 0.1 mm 3 m/s 745 mmHg 94%
    08:00 +17°C° 0.1 mm 3 m/s 745 mmHg 91%
    09:00 +18°C° 0.1 mm 3 m/s 745 mmHg 89%
    10:00 +19°C° 0.4 mm 3 m/s 745 mmHg 86%
    11:00 +19°C° 0.4 mm 4 m/s 746 mmHg 84%
    12:00 +20°C° 0.4 mm 4 m/s 746 mmHg 81%
    13:00 +20°C° 0.4 mm 4 m/s 746 mmHg 79%
    14:00 +20°C° 0.4 mm 4 m/s 746 mmHg 77%
    15:00 +21°C° 0.4 mm 4 m/s 746 mmHg 75%
    16:00 +20°C° 0.1 mm 4 m/s 746 mmHg 77%
    17:00 +19°C° 0.1 mm 4 m/s 746 mmHg 79%
    18:00 +19°C° 0.1 mm 3 m/s 747 mmHg 81%
    19:00 +17°C° 0 mm 3 m/s 747 mmHg 84%
    20:00 +14°C° 0 mm 3 m/s 747 mmHg 87%
    21:00 +12°C° 0 mm 3 m/s 748 mmHg 90%
    22:00 +11°C° 0 mm 3 m/s 748 mmHg 90%
    23:00 +10°C° 0 mm 2 m/s 748 mmHg 91%

    5 Juin, Vendredi

    Heure Température Précipitation Vent Pression Humidité
    00:00 +9°C° 0 mm 2 m/s 748 mmHg 92%
    01:00 +9°C° 0 mm 2 m/s 748 mmHg 92%
    02:00 +8°C° 0 mm 2 m/s 748 mmHg 93%
    03:00 +9°C° 0 mm 1 m/s 748 mmHg 93%
    04:00 +10°C° 0 mm 1 m/s 748 mmHg 90%
    05:00 +11°C° 0 mm 1 m/s 748 mmHg 86%
    06:00 +12°C° 0 mm 1 m/s 748 mmHg 82%
    07:00 +14°C° 0 mm 1 m/s 748 mmHg 78%
    08:00 +15°C° 0 mm 0 m/s 748 mmHg 73%
    09:00 +17°C° 0 mm 0 m/s 748 mmHg 69%
    10:00 +18°C° 0 mm 0 m/s 747 mmHg 66%
    11:00 +22°C° 0 mm 1 m/s 747 mmHg 63%
    12:00 +23°C° 0 mm 1 m/s 747 mmHg 60%
    13:00 +23°C° 0 mm 1 m/s 746 mmHg 59%
    14:00 +23°C° 0 mm 1 m/s 746 mmHg 59%
    15:00 +23°C° 0 mm 1 m/s 746 mmHg 59%
    16:00 +23°C° 0 mm 1 m/s 745 mmHg 63%
    17:00 +22°C° 0 mm 1 m/s 745 mmHg 68%
    18:00 +22°C° 0 mm 1 m/s 745 mmHg 73%
    19:00 +20°C° 0 mm 1 m/s 745 mmHg 74%
    20:00 +18°C° 0 mm 1 m/s 745 mmHg 75%
    21:00 +15°C° 0 mm 2 m/s 746 mmHg 77%
    22:00 +14°C° 0 mm 1 m/s 745 mmHg 77%
    23:00 +14°C° 0 mm 1 m/s 745 mmHg 76%
    Voir plus